contact:dominique.lefevre@mio.osupytheas.fr, maurice.libes@osupytheas.fr, didier.mallarino@osupytheas.fr
Project:EMSO http://www.emso-fr.org/EMSO-France
Depth: 2436.0 m
Title:EMSO Ligure Ouest : Data MII capteur AQUADOPP
Date,Latitude,Longitude,X_East,Y_North,Z_Up,Amplitude_X,Amplitude_Y,Amplitude_Z,Batterie,SoundSpeed,Heading,Pitch,Roll,Pressure,TIS,Speed,Direction
, degrees North, degrees East, m.s-1, m.s-1,m.s-1, 1, 1, 1, Volt, m.s-1, degree, degree, degree, dbar, degree_C, m.s-1, degree
2020-05-26T00:04:02,42.805,6.029,0.01,0.041,-0.035,101.0,105.0,99.0,13.4,1505.3,325.1,-0.8,1.8,2470.384,13.31,0.042,13.7
2020-05-26T00:07:02,42.805,6.029,0.002,0.035,-0.01,101.0,106.0,99.0,13.4,1505.3,323.4,-0.7,1.8,2470.367,13.32,0.035,3.3
2020-05-26T00:10:03,42.805,6.029,0.005,0.039,-0.004,101.0,105.0,100.0,13.3,1505.3,327.8,-0.7,1.8,2470.362,13.32,0.039,7.3
2020-05-26T00:13:03,42.805,6.029,-0.005,0.029,-0.026,101.0,105.0,100.0,13.4,1505.3,326.6,-0.8,1.9,2470.341,13.32,0.029,350.2
2020-05-26T00:16:03,42.805,6.029,0.014,0.043,0.009,100.0,105.0,100.0,13.3,1505.3,324.7,-0.7,1.8,2470.346,13.33,0.045,18.0
2020-05-26T00:22:02,42.805,6.029,-0.027,0.029,-0.028,101.0,108.0,99.0,13.4,1505.3,326.2,-0.7,1.8,2470.416,13.31,0.039,317.0
2020-05-26T00:25:03,42.805,6.029,0.001,0.048,-0.013,100.0,107.0,100.0,13.4,1505.3,327.0,-0.7,1.8,2470.432,13.32,0.048,1.2
2020-05-26T00:28:03,42.805,6.029,0.001,0.024,-0.027,102.0,107.0,99.0,13.4,1505.3,327.7,-0.7,1.9,2470.362,13.32,0.024,2.4
2020-05-26T00:31:02,42.805,6.029,0.016,0.033,-0.027,101.0,106.0,100.0,13.4,1505.3,324.5,-0.7,1.8,2470.385,13.32,0.036,25.9
2020-05-26T00:34:03,42.805,6.029,0.028,0.048,0.016,100.0,105.0,99.0,13.3,1505.3,326.7,-0.7,1.8,2470.39,13.33,0.055,30.3
2020-05-26T00:37:02,42.805,6.029,-0.011,0.047,-0.01,99.0,107.0,100.0,13.3,1505.3,324.7,-0.7,1.9,2470.366,13.33,0.048,346.8
2020-05-26T00:40:03,42.805,6.029,-0.008,0.03,-0.013,101.0,107.0,100.0,13.4,1505.3,325.1,-0.8,1.8,2470.387,13.33,0.031,345.1
2020-05-26T00:43:03,42.805,6.029,-0.019,0.051,0.023,100.0,106.0,99.0,13.3,1505.3,324.6,-0.7,1.9,2470.329,13.33,0.054,339.6
2020-05-26T00:46:03,42.805,6.029,0.035,0.011,0.003,101.0,105.0,99.0,13.3,1505.3,326.8,-0.7,1.8,2470.358,13.33,0.036,72.6
2020-05-26T00:49:03,42.805,6.029,-0.017,0.04,-0.029,100.0,108.0,99.0,13.3,1505.3,326.6,-0.7,1.8,2470.339,13.33,0.043,337.0
2020-05-26T00:52:02,42.805,6.029,0.02,0.055,0.01,99.0,107.0,100.0,13.4,1505.3,324.4,-0.7,1.8,2470.331,13.33,0.058,20.0
2020-05-26T00:55:03,42.805,6.029,0.003,0.047,-0.003,102.0,107.0,99.0,13.4,1505.3,325.3,-0.7,1.8,2470.347,13.33,0.047,3.6
2020-05-26T00:58:03,42.805,6.029,0.012,0.039,0.013,102.0,105.0,100.0,13.3,1505.3,325.0,-0.7,1.8,2470.36,13.33,0.04,17.1
2020-05-26T01:04:02,42.805,6.029,-0.001,0.028,-0.017,101.0,109.0,101.0,13.4,1505.3,323.8,-0.7,1.8,2470.387,13.31,0.028,358.0
2020-05-26T01:07:02,42.805,6.029,-0.01,0.035,-0.022,101.0,107.0,100.0,13.4,1505.3,324.8,-0.7,1.8,2470.382,13.32,0.036,344.1
2020-05-26T01:10:03,42.805,6.029,-0.009,0.046,0.002,101.0,107.0,100.0,13.4,1505.3,324.8,-0.7,1.8,2470.359,13.32,0.046,348.9
2020-05-26T01:13:03,42.805,6.029,-0.002,0.042,-0.021,101.0,108.0,99.0,13.4,1505.3,326.2,-0.7,1.8,2470.343,13.32,0.042,357.3
2020-05-26T01:16:03,42.805,6.029,-0.003,0.04,0.0,102.0,108.0,101.0,13.4,1505.3,325.1,-0.7,1.9,2470.363,13.32,0.04,355.7
2020-05-26T01:19:03,42.805,6.029,0.0,0.028,-0.013,101.0,106.0,99.0,13.4,1505.3,327.2,-0.7,1.8,2470.337,13.33,0.028,0.0
2020-05-26T01:22:03,42.805,6.029,0.016,0.034,0.03,101.0,107.0,102.0,13.4,1505.3,325.2,-0.7,1.8,2470.321,13.33,0.037,25.2
2020-05-26T01:25:03,42.805,6.029,0.035,0.043,0.022,102.0,106.0,100.0,13.4,1505.3,326.2,-0.7,1.8,2470.332,13.33,0.055,39.1
2020-05-26T01:28:03,42.805,6.029,0.01,0.019,-0.011,101.0,109.0,99.0,13.3,1505.3,326.3,-0.7,1.8,2470.312,13.33,0.021,27.8
2020-05-26T01:31:03,42.805,6.029,0.0,0.054,0.016,101.0,106.0,100.0,13.4,1505.3,326.9,-0.7,1.8,2470.304,13.33,0.053,0.0
2020-05-26T01:34:03,42.805,6.029,0.026,0.04,0.02,101.0,107.0,100.0,13.3,1505.3,325.3,-0.7,1.8,2470.312,13.33,0.047,33.0
2020-05-26T01:37:03,42.805,6.029,0.011,0.021,-0.009,101.0,105.0,100.0,13.4,1505.3,325.7,-0.7,1.8,2470.276,13.33,0.023,27.6
2020-05-26T01:40:03,42.805,6.029,0.017,0.027,0.005,102.0,107.0,100.0,13.4,1505.3,322.8,-0.7,1.8,2470.311,13.33,0.031,32.2
2020-05-26T01:43:03,42.805,6.029,0.028,0.022,0.0,102.0,105.0,99.0,13.3,1505.3,324.2,-0.7,1.9,2470.323,13.33,0.035,51.8
2020-05-26T01:46:03,42.805,6.029,0.029,0.037,0.017,100.0,107.0,101.0,13.4,1505.3,327.6,-0.7,1.9,2470.293,13.33,0.047,38.1
2020-05-26T01:49:03,42.805,6.029,0.021,0.04,-0.001,101.0,106.0,101.0,13.4,1505.3,324.9,-0.7,1.8,2470.335,13.33,0.045,27.7
2020-05-26T01:52:03,42.805,6.029,0.004,0.036,-0.012,103.0,106.0,99.0,13.4,1505.3,323.3,-0.7,1.8,2470.271,13.33,0.036,6.3
2020-05-26T01:55:03,42.805,6.029,0.024,0.047,0.011,101.0,106.0,100.0,13.4,1505.3,323.2,-0.7,1.9,2470.291,13.33,0.052,27.0
2020-05-26T01:58:03,42.805,6.029,-0.004,0.031,-0.022,102.0,107.0,100.0,13.4,1505.3,323.9,-0.7,1.8,2470.288,13.33,0.031,352.7
2020-05-26T02:04:02,42.805,6.029,0.009,0.029,-0.014,100.0,106.0,100.0,13.4,1505.3,327.0,-0.7,1.8,2470.294,13.31,0.03,17.2
2020-05-26T02:10:02,42.805,6.029,0.008,0.059,0.02,102.0,108.0,100.0,13.4,1505.2,326.4,-0.8,1.9,2470.32,13.3,0.059,7.7
2020-05-26T02:13:03,42.805,6.029,0.021,0.033,0.005,102.0,106.0,101.0,13.4,1505.3,325.4,-0.7,1.9,2470.321,13.31,0.039,32.5
2020-05-26T02:16:03,42.805,6.029,0.005,0.033,0.008,102.0,108.0,102.0,13.3,1505.3,326.1,-0.7,1.8,2470.326,13.32,0.033,8.6
2020-05-26T02:19:03,42.805,6.029,-0.012,0.065,0.035,100.0,105.0,101.0,13.3,1505.3,324.3,-0.7,1.8,2470.307,13.32,0.066,349.5
2020-05-26T02:22:03,42.805,6.029,0.017,0.028,0.028,101.0,107.0,100.0,13.4,1505.3,325.9,-0.7,1.8,2470.281,13.32,0.032,31.3
2020-05-26T02:25:03,42.805,6.029,0.012,0.054,0.016,102.0,106.0,100.0,13.4,1505.3,325.1,-0.7,1.8,2470.307,13.32,0.055,12.5
2020-05-26T02:28:03,42.805,6.029,-0.006,0.025,0.0,101.0,107.0,101.0,13.3,1505.3,326.4,-0.7,1.8,2470.322,13.33,0.025,346.5
2020-05-26T02:31:03,42.805,6.029,-0.001,0.041,-0.004,100.0,107.0,101.0,13.4,1505.3,326.9,-0.7,1.8,2470.283,13.33,0.041,358.6
2020-05-26T02:34:03,42.805,6.029,0.03,0.032,0.012,101.0,106.0,99.0,13.4,1505.3,326.6,-0.7,1.8,2470.283,13.33,0.043,43.1
2020-05-26T02:37:03,42.805,6.029,-0.015,0.057,-0.013,102.0,107.0,99.0,13.4,1505.3,326.3,-0.7,1.8,2470.278,13.33,0.058,345.3
2020-05-26T02:40:03,42.805,6.029,0.015,0.042,-0.014,102.0,107.0,100.0,13.4,1505.3,323.8,-0.7,1.9,2470.27,13.33,0.044,19.6
2020-05-26T02:43:03,42.805,6.029,0.02,0.035,-0.012,100.0,106.0,101.0,13.4,1505.3,323.8,-0.7,1.8,2470.281,13.33,0.04,29.7
2020-05-26T02:46:03,42.805,6.029,0.011,0.057,0.031,101.0,107.0,100.0,13.4,1505.3,323.0,-0.7,1.8,2470.266,13.33,0.058,10.9
2020-05-26T02:49:03,42.805,6.029,0.024,0.046,-0.013,101.0,104.0,100.0,13.3,1505.3,327.7,-0.7,1.8,2470.286,13.33,0.051,27.6
2020-05-26T02:52:03,42.805,6.029,0.012,0.008,-0.018,101.0,106.0,102.0,13.4,1505.3,324.4,-0.7,1.9,2470.266,13.33,0.014,56.3
2020-05-26T02:55:03,42.805,6.029,0.036,0.061,0.053,101.0,106.0,100.0,13.4,1505.3,327.1,-0.7,1.8,2470.289,13.33,0.07,30.6
2020-05-26T02:58:03,42.805,6.029,-0.009,0.053,-0.004,101.0,107.0,100.0,13.4,1505.3,322.5,-0.7,1.8,2470.239,13.33,0.053,350.4
2020-05-26T03:04:03,42.805,6.029,0.031,0.037,-0.002,103.0,107.0,100.0,13.4,1505.3,323.9,-0.7,1.8,2470.318,13.31,0.048,40.0
2020-05-26T03:07:02,42.805,6.029,0.015,0.054,0.01,102.0,106.0,100.0,13.3,1505.3,323.3,-0.7,1.9,2470.306,13.32,0.056,15.5
2020-05-26T03:10:03,42.805,6.029,0.013,0.036,0.025,101.0,105.0,100.0,13.4,1505.3,326.9,-0.7,1.8,2470.293,13.32,0.038,19.9
2020-05-26T03:13:03,42.805,6.029,0.011,0.039,0.0,102.0,106.0,102.0,13.4,1505.3,325.9,-0.7,1.9,2470.311,13.33,0.04,15.7
2020-05-26T03:16:03,42.805,6.029,0.011,0.039,0.012,101.0,105.0,100.0,13.3,1505.3,324.5,-0.7,1.8,2470.273,13.33,0.04,15.7
2020-05-26T03:19:03,42.805,6.029,0.024,0.026,0.007,102.0,105.0,101.0,13.3,1505.3,326.6,-0.7,1.8,2470.247,13.33,0.035,42.7
2020-05-26T03:22:02,42.805,6.029,0.05,0.032,0.049,101.0,107.0,100.0,13.4,1505.3,326.3,-0.7,1.8,2470.275,13.33,0.059,57.4
2020-05-26T03:25:03,42.805,6.029,0.032,0.038,-0.024,100.0,106.0,100.0,13.4,1505.3,324.8,-0.7,1.8,2470.259,13.33,0.049,40.1
2020-05-26T03:28:03,42.805,6.029,0.012,0.048,0.012,101.0,106.0,101.0,13.4,1505.3,324.4,-0.7,1.8,2470.284,13.33,0.049,14.0
2020-05-26T03:31:03,42.805,6.029,0.05,0.047,0.038,101.0,106.0,100.0,13.3,1505.3,326.7,-0.7,1.8,2470.271,13.33,0.068,46.8
2020-05-26T03:34:03,42.805,6.029,0.019,0.029,-0.034,101.0,106.0,101.0,13.4,1505.3,327.0,-0.7,1.8,2470.263,13.33,0.034,33.2
2020-05-26T03:37:02,42.805,6.029,0.021,0.042,-0.01,101.0,107.0,100.0,13.4,1505.3,327.2,-0.7,1.8,2470.253,13.33,0.046,26.6
2020-05-26T03:40:03,42.805,6.029,0.028,0.039,0.027,101.0,107.0,100.0,13.4,1505.3,328.2,-0.7,1.8,2470.247,13.33,0.048,35.7
2020-05-26T03:43:03,42.805,6.029,0.001,0.034,-0.015,102.0,106.0,99.0,13.4,1505.3,324.0,-0.7,1.8,2470.263,13.33,0.034,1.7
2020-05-26T03:46:03,42.805,6.029,0.029,0.032,-0.02,101.0,106.0,100.0,13.4,1505.3,325.6,-0.7,1.8,2470.245,13.33,0.043,42.2
2020-05-26T03:49:03,42.805,6.029,0.01,0.045,0.0,102.0,106.0,101.0,13.4,1505.3,327.6,-0.7,1.8,2470.227,13.33,0.046,12.5
2020-05-26T03:52:03,42.805,6.029,0.012,0.053,0.039,102.0,105.0,100.0,13.3,1505.3,325.1,-0.7,1.8,2470.275,13.33,0.054,12.8
2020-05-26T03:55:03,42.805,6.029,0.016,0.049,-0.002,101.0,108.0,100.0,13.4,1505.3,323.8,-0.7,1.9,2470.225,13.33,0.051,18.1
2020-05-26T03:58:03,42.805,6.029,0.02,0.043,-0.016,101.0,104.0,100.0,13.3,1505.3,323.2,-0.7,1.8,2470.228,13.33,0.047,24.9
2020-05-26T04:04:02,42.805,6.029,0.008,0.044,-0.035,100.0,106.0,99.0,13.4,1505.3,327.1,-0.7,1.8,2470.331,13.31,0.044,10.3
2020-05-26T04:07:02,42.805,6.029,-0.015,0.045,-0.022,99.0,106.0,99.0,13.4,1505.3,327.9,-0.8,1.8,2470.306,13.32,0.047,341.6
2020-05-26T04:10:03,42.805,6.029,0.008,0.049,0.0,101.0,106.0,99.0,13.4,1505.3,327.0,-0.7,1.9,2470.287,13.32,0.049,9.3
2020-05-26T04:13:03,42.805,6.029,0.024,0.024,-0.009,101.0,106.0,99.0,13.4,1505.3,325.5,-0.7,1.8,2470.239,13.32,0.033,45.0
2020-05-26T04:16:03,42.805,6.029,0.0,0.041,0.024,99.0,108.0,99.0,13.4,1505.3,327.5,-0.7,1.8,2470.29,13.33,0.041,0.0
2020-05-26T04:19:03,42.805,6.029,0.031,0.02,0.022,101.0,106.0,101.0,13.4,1505.3,325.5,-0.8,1.8,2470.283,13.33,0.036,57.2
2020-05-26T04:22:03,42.805,6.029,-0.005,0.052,-0.006,99.0,106.0,99.0,13.4,1505.3,325.1,-0.7,1.8,2470.268,13.33,0.052,354.5
2020-05-26T04:25:03,42.805,6.029,0.019,0.042,-0.006,101.0,105.0,99.0,13.3,1505.3,325.7,-0.7,1.8,2470.251,13.33,0.046,24.3
2020-05-26T04:28:03,42.805,6.029,0.009,0.04,-0.027,100.0,106.0,99.0,13.4,1505.3,323.0,-0.7,1.8,2470.261,13.33,0.041,12.7
2020-05-26T04:31:03,42.805,6.029,0.009,0.041,-0.002,100.0,105.0,98.0,13.4,1505.3,328.2,-0.7,1.8,2470.286,13.33,0.041,12.4
2020-05-26T04:34:03,42.805,6.029,0.013,0.035,0.0,100.0,104.0,99.0,13.4,1505.3,326.2,-0.7,1.8,2470.215,13.33,0.037,20.4
2020-05-26T04:37:03,42.805,6.029,-0.021,0.033,-0.031,100.0,106.0,100.0,13.4,1505.3,326.1,-0.7,1.9,2470.254,13.33,0.039,327.5
2020-05-26T04:40:03,42.805,6.029,0.011,0.042,-0.002,100.0,106.0,99.0,13.3,1505.3,325.6,-0.7,1.8,2470.252,13.33,0.043,14.7
2020-05-26T04:43:03,42.805,6.029,0.014,0.029,0.001,101.0,105.0,100.0,13.4,1505.3,325.0,-0.7,1.8,2470.246,13.33,0.032,25.8
2020-05-26T04:46:03,42.805,6.029,-0.003,0.033,-0.067,100.0,105.0,99.0,13.4,1505.3,327.2,-0.7,1.9,2470.23,13.33,0.033,354.8
2020-05-26T04:49:03,42.805,6.029,0.004,0.036,-0.007,101.0,105.0,100.0,13.4,1505.3,325.1,-0.7,1.8,2470.239,13.33,0.036,6.3
2020-05-26T04:52:02,42.805,6.029,0.01,0.021,-0.031,101.0,105.0,100.0,13.4,1505.3,324.1,-0.7,1.9,2470.27,13.33,0.023,25.5
2020-05-26T04:55:03,42.805,6.029,0.009,0.048,-0.001,101.0,106.0,99.0,13.4,1505.3,328.4,-0.7,1.9,2470.236,13.33,0.048,10.6
2020-05-26T04:58:03,42.805,6.029,-0.013,0.029,-0.022,99.0,107.0,100.0,13.3,1505.3,324.7,-0.7,1.8,2470.271,13.33,0.031,335.9
2020-05-26T05:04:03,42.805,6.029,0.025,0.028,0.002,101.0,106.0,99.0,13.4,1505.3,324.9,-0.8,1.8,2470.294,13.31,0.037,41.8
2020-05-26T05:07:03,42.805,6.029,0.003,0.026,-0.011,101.0,107.0,99.0,13.4,1505.3,326.5,-0.7,1.8,2470.315,13.32,0.026,6.6
2020-05-26T05:10:03,42.805,6.029,-0.004,0.03,-0.006,102.0,106.0,100.0,13.3,1505.3,326.4,-0.7,1.8,2470.297,13.32,0.03,352.4
2020-05-26T05:13:03,42.805,6.029,0.001,0.023,-0.007,100.0,106.0,100.0,13.3,1505.3,327.5,-0.7,1.8,2470.274,13.33,0.023,2.5
2020-05-26T05:16:03,42.805,6.029,0.008,0.025,0.004,102.0,104.0,100.0,13.4,1505.3,325.8,-0.7,1.8,2470.315,13.33,0.026,17.7
2020-05-26T05:19:03,42.805,6.029,0.009,0.03,-0.013,102.0,106.0,99.0,13.4,1505.3,323.0,-0.7,1.8,2470.283,13.33,0.031,16.7
2020-05-26T05:22:03,42.805,6.029,-0.008,0.024,-0.016,102.0,109.0,99.0,13.4,1505.3,325.1,-0.7,1.8,2470.277,13.33,0.025,341.6
2020-05-26T05:25:03,42.805,6.029,0.015,0.052,0.003,99.0,106.0,100.0,13.4,1505.3,323.1,-0.7,1.8,2470.296,13.33,0.054,16.1
2020-05-26T05:28:03,42.805,6.029,-0.018,0.031,-0.003,101.0,107.0,100.0,13.3,1505.3,324.0,-0.7,1.8,2470.292,13.33,0.035,329.9
2020-05-26T05:31:03,42.805,6.029,-0.014,0.024,-0.03,102.0,105.0,100.0,13.4,1505.3,323.5,-0.7,1.8,2470.283,13.33,0.027,329.7
2020-05-26T05:34:03,42.805,6.029,0.016,0.041,0.023,100.0,105.0,99.0,13.4,1505.3,327.0,-0.7,1.8,2470.272,13.33,0.044,21.3
2020-05-26T05:37:03,42.805,6.029,-0.009,0.017,-0.019,101.0,106.0,101.0,13.3,1505.3,327.9,-0.7,1.9,2470.304,13.33,0.019,332.1
2020-05-26T05:40:03,42.805,6.029,-0.008,0.029,-0.047,100.0,107.0,100.0,13.3,1505.3,326.4,-0.7,1.9,2470.297,13.33,0.03,344.6
2020-05-26T05:43:03,42.805,6.029,0.004,0.03,-0.05,100.0,108.0,100.0,13.4,1505.3,325.6,-0.7,1.8,2470.338,13.33,0.03,7.6
2020-05-26T05:46:03,42.805,6.029,-0.007,0.021,-0.013,101.0,107.0,99.0,13.4,1505.3,323.5,-0.7,1.9,2470.276,13.33,0.022,341.6
2020-05-26T05:49:03,42.805,6.029,0.018,0.055,0.012,101.0,104.0,101.0,13.3,1505.3,323.2,-0.7,1.8,2470.296,13.33,0.057,18.1
2020-05-26T05:52:03,42.805,6.029,-0.024,0.034,-0.013,100.0,107.0,101.0,13.3,1505.3,322.7,-0.7,1.8,2470.278,13.33,0.041,324.8
2020-05-26T05:55:03,42.805,6.029,0.004,0.021,-0.008,101.0,106.0,101.0,13.4,1505.3,327.0,-0.7,1.8,2470.291,13.33,0.021,10.8
2020-05-26T05:58:03,42.805,6.029,0.01,0.035,-0.006,102.0,105.0,100.0,13.3,1505.3,327.3,-0.7,1.8,2470.252,13.33,0.036,15.9
2020-05-26T06:04:02,42.805,6.029,0.026,0.035,0.009,103.0,106.0,100.0,13.3,1505.3,325.6,-0.8,1.8,2470.331,13.32,0.043,36.6
2020-05-26T06:07:02,42.805,6.029,0.0,0.027,-0.009,102.0,106.0,99.0,13.3,1505.3,325.8,-0.7,1.8,2470.309,13.32,0.026,0.0
2020-05-26T06:10:03,42.805,6.029,0.015,0.028,-0.012,103.0,106.0,99.0,13.4,1505.3,326.9,-0.7,1.8,2470.263,13.33,0.031,28.2
2020-05-26T06:13:03,42.805,6.029,0.022,0.022,0.007,102.0,106.0,100.0,13.3,1505.3,324.2,-0.7,1.9,2470.34,13.33,0.031,45.0
2020-05-26T06:16:03,42.805,6.029,-0.002,0.015,-0.019,102.0,106.0,100.0,13.3,1505.3,323.4,-0.7,1.8,2470.226,13.33,0.015,352.4
2020-05-26T06:19:03,42.805,6.029,0.0,0.021,-0.01,102.0,107.0,100.0,13.4,1505.3,323.7,-0.7,1.8,2470.334,13.33,0.021,0.0
2020-05-26T06:22:03,42.805,6.029,0.0,0.018,-0.033,102.0,107.0,101.0,13.4,1505.3,324.5,-0.7,1.8,2470.292,13.33,0.018,0.0
2020-05-26T06:25:03,42.805,6.029,-0.015,0.038,-0.021,101.0,106.0,101.0,13.4,1505.3,325.8,-0.7,1.8,2470.3,13.33,0.04,338.5
2020-05-26T06:28:03,42.805,6.029,0.022,0.019,-0.004,102.0,107.0,99.0,13.4,1505.3,327.9,-0.7,1.8,2470.263,13.33,0.029,49.2
2020-05-26T06:31:03,42.805,6.029,-0.004,0.02,-0.029,103.0,107.0,99.0,13.4,1505.3,324.0,-0.7,1.9,2470.325,13.33,0.02,348.7
2020-05-26T06:34:03,42.805,6.029,-0.018,0.032,0.0,102.0,107.0,99.0,13.3,1505.3,323.0,-0.7,1.9,2470.321,13.33,0.036,330.6
2020-05-26T06:37:03,42.805,6.029,0.013,0.007,-0.023,102.0,106.0,100.0,13.3,1505.3,326.1,-0.7,1.8,2470.29,13.33,0.014,61.7
2020-05-26T06:40:03,42.805,6.029,0.008,0.04,0.012,100.0,107.0,100.0,13.4,1505.3,327.0,-0.7,1.8,2470.287,13.33,0.04,11.3
2020-05-26T06:43:03,42.805,6.029,0.033,0.026,0.027,103.0,106.0,100.0,13.4,1505.3,325.4,-0.7,1.8,2470.31,13.33,0.042,51.8
2020-05-26T06:46:03,42.805,6.029,0.019,0.029,0.009,103.0,107.0,99.0,13.4,1505.4,327.7,-0.7,1.8,2470.291,13.34,0.034,33.2
2020-05-26T06:49:03,42.805,6.029,0.019,0.028,-0.047,101.0,108.0,100.0,13.3,1505.4,323.3,-0.7,1.8,2470.304,13.34,0.033,34.2
2020-05-26T06:52:02,42.805,6.029,0.017,0.01,-0.012,102.0,107.0,99.0,13.3,1505.3,322.8,-0.7,1.9,2470.291,13.33,0.019,59.5
2020-05-26T06:55:03,42.805,6.029,0.002,0.028,0.016,101.0,107.0,99.0,13.4,1505.3,327.4,-0.7,1.8,2470.281,13.33,0.028,4.1
2020-05-26T06:58:03,42.805,6.029,0.017,0.015,-0.008,100.0,106.0,99.0,13.4,1505.3,326.4,-0.7,1.8,2470.31,13.33,0.022,48.6
2020-05-26T07:04:03,42.805,6.029,0.005,0.02,-0.018,101.0,106.0,100.0,13.4,1505.3,324.4,-0.7,1.8,2470.361,13.32,0.02,14.0
2020-05-26T07:07:03,42.805,6.029,0.004,0.039,0.009,100.0,106.0,105.0,13.4,1505.3,323.6,-0.7,1.8,2470.341,13.32,0.039,5.9
2020-05-26T07:10:03,42.805,6.029,0.0,0.03,-0.011,101.0,105.0,99.0,13.4,1505.3,323.4,-0.7,1.8,2470.376,13.33,0.03,0.0
2020-05-26T07:13:03,42.805,6.029,0.005,0.017,-0.025,101.0,106.0,99.0,13.3,1505.3,325.5,-0.7,1.9,2470.373,13.33,0.017,16.4
2020-05-26T07:16:03,42.805,6.029,-0.026,0.038,-0.031,102.0,106.0,99.0,13.3,1505.3,323.5,-0.7,1.8,2470.307,13.33,0.046,325.6
2020-05-26T07:19:03,42.805,6.029,-0.006,0.011,-0.015,100.0,106.0,101.0,13.4,1505.3,324.4,-0.7,1.8,2470.317,13.33,0.012,331.4
2020-05-26T07:22:03,42.805,6.029,0.032,0.034,0.017,101.0,107.0,100.0,13.4,1505.3,326.6,-0.7,1.8,2470.32,13.33,0.046,43.3
2020-05-26T07:25:03,42.805,6.029,-0.019,0.038,0.002,101.0,107.0,100.0,13.4,1505.3,326.3,-0.8,1.9,2470.314,13.33,0.042,333.4
2020-05-26T07:28:03,42.805,6.029,-0.006,0.039,-0.014,104.0,107.0,100.0,13.3,1505.3,323.5,-0.7,1.8,2470.303,13.33,0.039,351.3
2020-05-26T07:31:03,42.805,6.029,0.007,0.027,-0.013,101.0,106.0,99.0,13.3,1505.3,326.2,-0.7,1.8,2470.336,13.33,0.027,14.5
2020-05-26T07:34:03,42.805,6.029,-0.003,0.049,0.021,102.0,104.0,100.0,13.3,1505.4,326.6,-0.7,1.8,2470.34,13.34,0.049,356.5
2020-05-26T07:37:03,42.805,6.029,0.02,0.026,-0.01,102.0,106.0,100.0,13.3,1505.4,324.9,-0.7,1.8,2470.363,13.34,0.032,37.6
2020-05-26T07:40:03,42.805,6.029,-0.002,0.011,-0.033,101.0,107.0,100.0,13.4,1505.3,324.4,-0.7,1.8,2470.3,13.33,0.011,349.7
2020-05-26T07:43:03,42.805,6.029,0.012,0.016,-0.018,101.0,108.0,99.0,13.4,1505.3,327.2,-0.7,1.8,2470.368,13.33,0.02,36.9
2020-05-26T07:46:02,42.805,6.029,-0.003,0.038,-0.003,101.0,104.0,100.0,13.4,1505.4,326.0,-0.7,1.8,2470.316,13.34,0.038,355.5
2020-05-26T07:49:03,42.805,6.029,0.0,0.032,-0.001,99.0,105.0,100.0,13.4,1505.4,326.5,-0.7,1.8,2470.343,13.34,0.032,0.0
2020-05-26T07:52:03,42.805,6.029,0.0,0.027,-0.037,100.0,105.0,101.0,13.4,1505.4,324.8,-0.7,1.8,2470.331,13.34,0.026,0.0
2020-05-26T07:55:03,42.805,6.029,0.047,0.016,0.042,101.0,106.0,99.0,13.4,1505.4,325.1,-0.7,1.9,2470.361,13.34,0.049,71.2
2020-05-26T07:58:03,42.805,6.029,0.037,0.03,0.031,102.0,104.0,100.0,13.4,1505.4,324.4,-0.7,1.8,2470.337,13.34,0.047,51.0
2020-05-26T08:04:03,42.805,6.029,0.013,0.021,0.016,101.0,106.0,100.0,13.4,1505.3,324.3,-0.7,1.8,2470.424,13.32,0.024,31.8
2020-05-26T08:07:03,42.805,6.029,0.016,0.028,-0.002,100.0,105.0,99.0,13.4,1505.3,326.9,-0.7,1.9,2470.356,13.32,0.032,29.7
2020-05-26T08:10:03,42.805,6.029,0.021,0.029,0.032,101.0,106.0,100.0,13.4,1505.3,328.2,-0.7,1.8,2470.367,13.33,0.035,35.9
2020-05-26T08:13:02,42.805,6.029,0.004,0.038,0.001,101.0,106.0,99.0,13.4,1505.3,324.1,-0.7,1.8,2470.367,13.33,0.038,6.0
2020-05-26T08:16:03,42.805,6.029,0.016,0.022,-0.02,101.0,105.0,99.0,13.4,1505.3,326.5,-0.7,1.8,2470.353,13.33,0.027,36.0
2020-05-26T08:19:03,42.805,6.029,-0.004,0.032,-0.044,101.0,105.0,99.0,13.4,1505.3,326.8,-0.7,1.8,2470.358,13.33,0.032,352.9
2020-05-26T08:22:03,42.805,6.029,-0.003,0.029,-0.007,100.0,107.0,99.0,13.4,1505.3,328.3,-0.7,1.8,2470.346,13.33,0.029,354.1
2020-05-26T08:25:03,42.805,6.029,0.022,0.022,-0.018,101.0,105.0,99.0,13.4,1505.4,323.6,-0.7,1.9,2470.322,13.34,0.031,45.0
2020-05-26T08:28:03,42.805,6.029,0.008,0.024,-0.006,100.0,107.0,99.0,13.3,1505.4,325.2,-0.7,1.8,2470.344,13.34,0.025,18.4
2020-05-26T08:31:02,42.805,6.029,0.005,0.03,0.009,100.0,106.0,99.0,13.4,1505.4,326.7,-0.7,1.8,2470.343,13.34,0.03,9.5
2020-05-26T08:34:03,42.805,6.029,-0.019,0.03,-0.023,100.0,106.0,102.0,13.4,1505.4,326.4,-0.7,1.8,2470.343,13.34,0.035,327.7
2020-05-26T08:37:03,42.805,6.029,0.035,0.017,0.009,101.0,104.0,100.0,13.4,1505.4,326.9,-0.7,1.8,2470.373,13.34,0.038,64.1
2020-05-26T08:40:03,42.805,6.029,0.0,0.029,-0.031,102.0,104.0,100.0,13.3,1505.4,326.2,-0.7,1.8,2470.341,13.34,0.028,0.0
2020-05-26T08:43:03,42.805,6.029,-0.003,0.027,-0.008,100.0,105.0,100.0,13.3,1505.4,322.8,-0.7,1.8,2470.408,13.34,0.027,353.7
2020-05-26T08:46:03,42.805,6.029,0.02,0.031,-0.002,102.0,105.0,99.0,13.4,1505.4,327.9,-0.7,1.8,2470.324,13.34,0.036,32.8
2020-05-26T08:49:03,42.805,6.029,0.042,0.031,0.014,99.0,106.0,100.0,13.3,1505.4,323.3,-0.7,1.8,2470.333,13.34,0.052,53.6
2020-05-26T08:52:03,42.805,6.029,0.044,0.032,0.03,102.0,105.0,100.0,13.4,1505.4,326.3,-0.7,1.9,2470.348,13.34,0.054,54.0
2020-05-26T08:55:03,42.805,6.029,0.053,0.025,0.026,102.0,103.0,100.0,13.4,1505.4,328.1,-0.7,1.8,2470.318,13.34,0.058,64.7
2020-05-26T08:58:03,42.805,6.029,0.046,0.026,0.048,101.0,104.0,99.0,13.4,1505.4,323.3,-0.7,1.9,2470.353,13.34,0.052,60.5
2020-05-26T09:04:03,42.805,6.029,0.011,0.026,-0.018,100.0,105.0,99.0,13.4,1505.3,325.7,-0.7,1.8,2470.4,13.32,0.028,22.9
2020-05-26T09:07:03,42.805,6.029,0.022,0.031,0.005,101.0,104.0,100.0,13.4,1505.3,322.8,-0.7,1.8,2470.374,13.32,0.038,35.4
2020-05-26T09:10:03,42.805,6.029,0.016,0.033,-0.001,99.0,105.0,101.0,13.4,1505.3,325.2,-0.7,1.9,2470.373,13.33,0.036,25.9
2020-05-26T09:13:02,42.805,6.029,0.035,0.044,0.024,101.0,106.0,99.0,13.4,1505.3,324.9,-0.7,1.9,2470.36,13.33,0.056,38.5
2020-05-26T09:16:03,42.805,6.029,0.048,0.02,0.012,100.0,105.0,100.0,13.4,1505.3,324.3,-0.7,1.8,2470.395,13.33,0.052,67.4
2020-05-26T09:19:03,42.805,6.029,0.03,0.031,0.03,101.0,105.0,100.0,13.4,1505.3,324.2,-0.7,1.9,2470.343,13.33,0.043,44.1
2020-05-26T09:22:03,42.805,6.029,0.033,0.012,-0.011,102.0,105.0,99.0,13.4,1505.3,323.4,-0.7,1.9,2470.384,13.33,0.035,70.0
2020-05-26T09:25:03,42.805,6.029,0.033,0.018,0.004,102.0,105.0,99.0,13.4,1505.4,327.9,-0.7,1.8,2470.37,13.34,0.037,61.4
2020-05-26T09:28:03,42.805,6.029,-0.006,0.011,-0.031,99.0,106.0,100.0,13.4,1505.4,326.4,-0.7,1.8,2470.341,13.34,0.012,331.4
2020-05-26T09:31:03,42.805,6.029,-0.024,0.018,-0.065,101.0,104.0,100.0,13.4,1505.4,326.8,-0.7,1.8,2470.317,13.34,0.03,306.9
2020-05-26T09:34:03,42.805,6.029,0.019,0.024,0.002,100.0,104.0,99.0,13.4,1505.4,328.4,-0.7,1.8,2470.342,13.34,0.03,38.4
2020-05-26T09:37:03,42.805,6.029,0.034,0.012,0.002,102.0,105.0,99.0,13.4,1505.4,327.5,-0.7,1.9,2470.355,13.34,0.036,70.6
2020-05-26T09:40:03,42.805,6.029,0.067,0.018,0.041,103.0,104.0,99.0,13.4,1505.4,326.8,-0.7,1.8,2470.346,13.34,0.069,75.0
2020-05-26T09:43:03,42.805,6.029,0.037,0.03,0.042,102.0,106.0,100.0,13.4,1505.4,327.6,-0.7,1.8,2470.328,13.34,0.047,51.0
2020-05-26T09:46:03,42.805,6.029,0.085,0.05,0.082,101.0,106.0,100.0,13.4,1505.4,323.8,-0.7,1.8,2470.311,13.34,0.098,59.5
2020-05-26T09:49:03,42.805,6.029,0.038,0.028,0.009,101.0,104.0,100.0,13.4,1505.4,326.2,-0.7,1.8,2470.329,13.34,0.047,53.6
2020-05-26T09:52:02,42.805,6.029,0.024,0.016,0.018,101.0,104.0,99.0,13.4,1505.4,326.4,-0.7,1.8,2470.289,13.34,0.028,56.3
2020-05-26T09:55:03,42.805,6.029,0.051,0.046,0.0,99.0,106.0,100.0,13.3,1505.4,327.6,-0.7,1.8,2470.339,13.34,0.068,48.0
2020-05-26T09:58:03,42.805,6.029,0.015,0.016,0.007,100.0,106.0,100.0,13.4,1505.4,327.8,-0.7,1.8,2470.331,13.34,0.021,43.1
2020-05-26T10:04:02,42.805,6.029,0.069,0.03,0.043,101.0,105.0,99.0,13.4,1505.3,327.9,-0.7,1.8,2470.358,13.32,0.075,66.5
2020-05-26T10:07:03,42.805,6.029,-0.037,0.006,-0.049,101.0,105.0,100.0,13.3,1505.3,323.8,-0.7,1.8,2470.364,13.32,0.037,279.2
2020-05-26T10:10:03,42.805,6.029,0.056,0.028,0.017,101.0,105.0,100.0,13.4,1505.3,324.2,-0.7,1.8,2470.367,13.33,0.062,63.4
2020-05-26T10:13:03,42.805,6.029,0.036,0.034,0.022,101.0,105.0,99.0,13.4,1505.3,324.3,-0.7,1.8,2470.337,13.33,0.049,46.6
2020-05-26T10:16:03,42.805,6.029,0.073,0.049,0.045,102.0,105.0,99.0,13.3,1505.3,323.3,-0.7,1.8,2470.345,13.33,0.087,56.1